Location: Unspecified
(41.4057°N, 2.1753°E)
Time: 14:45:18
(UTC+01:00)

ISS - Visible Passes

Search period start: 19 December 2014 00:00
Search period end: 29 December 2014 00:00
Orbit: 404 x 415 km, 51.6° (Epoch: 19 December)

Date Brightness Start Highest point End Pass type
(mag) Time Alt. Az. Time Alt. Az. Time Alt. Az.
19 Dec -0.7 19:23:24 10° NNW 19:24:05 13° NNW 19:24:05 13° NNW visible
20 Dec -1.3 18:32:43 10° NNW 18:34:44 15° N 18:35:28 14° NNE visible
21 Dec -1.2 19:18:14 10° NW 19:19:37 19° NNW 19:19:37 19° NNW visible
22 Dec -1.7 18:27:32 10° NNW 18:30:03 20° NNE 18:31:04 18° NE visible
22 Dec -0.1 20:03:42 10° NW 20:03:50 11° NW 20:03:50 11° NW visible
23 Dec -2.6 19:12:51 10° NW 19:15:21 41° NNW 19:15:21 41° NNW visible
24 Dec -2.4 18:22:01 10° NW 18:25:01 32° NNE 18:27:01 17° E visible
24 Dec -0.6 19:58:34 10° WNW 19:59:48 19° W 19:59:48 19° W visible
25 Dec -3.0 19:07:24 10° WNW 19:10:39 66° SW 19:11:41 39° SSE visible
26 Dec -3.4 18:16:20 10° NW 18:19:36 67° NNE 18:22:51 10° ESE visible
26 Dec -0.3 19:54:01 10° W 19:55:47 14° SW 19:56:42 13° SSW visible
27 Dec -1.0 19:02:06 10° WNW 19:04:51 25° SW 19:07:36 10° SSE visible
28 Dec -2.2 18:10:38 10° WNW 18:13:48 47° SW 18:16:57 10° SE visible
